User: anonymous
Location: Fisheating Creek Campgrounds
(26.9333°N, 81.3167°W)
Time: 10:07:10
(UTC-04:00)
Language:

NATO 3D Rocket - Orbit

View from above orbital plane
View from above orbital plane
View from above satellite
View from above satellite

Ground track
Ground track

The orbit data is extracted from the following two-line orbital elements,

1 15392U 84115B   14259.15492249  .00000205  00000-0  53685-4 0  1929
2 15392 021.4896 223.3787 1035006 090.7586 007.9585 12.45431607358614
Epoch (UTC): 16 September 2014 03:43:05
Eccentricity: 0.1035006
inclination: 21.4896°
perigee height: 670 km
apogee height: 2297 km
right ascension of ascending node: 223.3787°
argument of perigee: 90.7586°
revolutions per day: 12.45431607
mean anomaly at epoch: 7.9585°
orbit number at epoch: 35861

The dashed part of the orbit path shows where the satellite is in the earth's shadow,  

DLR